Weather History for KEWN - July, 2013

Change the Weather History Date:

Friday, July 19, 2013

  Actual Average Record
Temperature  
Mean Temperature 84 °F 81 °F  
Max Temperature 92 °F 90 °F 97 °F (1977)
Min Temperature 76 °F 72 °F 63 °F (1966)
Degree Days  
Heating Degree Days 0 0  
Month to date heating degree days 0 0  
Since 1 June heating degree days 0 1  
Since 1 July heating degree days 0 0  
Cooling Degree Days 19 16  
Month to date cooling degree days 319 297  
Year to date cooling degree days 984 905  
Since 1 June cooling degree days 728 662  
Growing Degree Days 33 (Base 50)    
Moisture  
Dew Point 74 °F    
Average Humidity 75    
Maximum Humidity 94    
Minimum Humidity 56    
Precipitation  
Precipitation 0.00 in 0.21 in 1.91 in (1965)
Month to date precipitation 2.79 3.61  
Year to date precipitation 22.35 27.59  
Snow  
Snow 0.00 in - - ()
Month to date snowfall 0.0  
Since 1 July snowfall 0.0  
Snow Depth 0.00 in    
Sea Level Pressure  
Sea Level Pressure 30.10 in    
Wind  
Wind Speed 8 mph (SW)    
Max Wind Speed 17 mph    
Max Gust Speed 25 mph    
Visibility 10 miles    
Events      
T = Trace of Precipitation, MM = Missing Value Source: NWS Daily Summary

Daily Weather History Graph

Daily Weather History Graph

Search for Another Location

Airport or City:

Trip Planner

Search our weather history database for the weather conditions in past years. The results will help you decide how hot, cold, wet, or windy it might be!

Date:

Astronomy

Jul. 19, 2013 Rise Set
Actual Time 6:08 AM EDT 8:20 PM EDT
Civil Twilight 5:39 AM EDT 8:49 PM EDT
Nautical Twilight 5:04 AM EDT 9:24 PM EDT
Astronomical Twilight 4:26 AM EDT 10:02 PM EDT
Moon 5:20 PM EDT (7/19) 2:46 AM EDT (7/19)
Length of Visible Light 15h 09m
Length of Day
14h 12m
Waxing Gibbous, 86% of the Moon is Illuminated
Jul 19
Waxing Gibbous
Jul 22
Full
Jul 29
Last Quarter
Aug 6
New
Aug 14
First Quarter

Hourly Weather History & Observations

Time (EDT) Temp. Heat Index Dew Point Humidity Pressure Visibility Wind Dir Wind Speed Gust Speed Precip Events Conditions
12:54 AM 79.0 °F - 73.9 °F 84% 30.13 in 10.0 mi SW 5.8 mph - N/A   Clear
1:54 AM 78.1 °F - 73.9 °F 87% 30.12 in 10.0 mi SW 4.6 mph - N/A   Clear
2:54 AM 77.0 °F - 73.9 °F 90% 30.11 in 8.0 mi WSW 4.6 mph - N/A   Clear
3:54 AM 77.0 °F - 73.9 °F 90% 30.10 in 8.0 mi SW 4.6 mph - N/A   Clear
4:54 AM 75.9 °F - 73.9 °F 94% 30.10 in 8.0 mi SW 5.8 mph - N/A   Clear
5:54 AM 75.9 °F - 73.9 °F 94% 30.11 in 8.0 mi SW 4.6 mph - N/A   Clear
6:54 AM 75.9 °F - 73.9 °F 94% 30.13 in 7.0 mi SW 4.6 mph - N/A   Clear
7:54 AM 79.0 °F - 73.9 °F 84% 30.14 in 10.0 mi WSW 6.9 mph - N/A   Partly Cloudy
8:54 AM 82.9 °F 89.4 °F 73.9 °F 74% 30.14 in 10.0 mi WSW 6.9 mph - N/A   Clear
9:54 AM 84.9 °F 91.4 °F 73.0 °F 67% 30.14 in 10.0 mi SW 10.4 mph - N/A   Clear
10:54 AM 87.1 °F 92.8 °F 71.1 °F 59% 30.14 in 10.0 mi WSW 10.4 mph - N/A   Clear
11:54 AM 89.1 °F 97.0 °F 73.0 °F 59% 30.14 in 10.0 mi WSW 6.9 mph - N/A   Clear
12:54 PM 89.1 °F 96.0 °F 72.0 °F 57% 30.12 in 10.0 mi WSW 9.2 mph - N/A   Scattered Clouds
1:54 PM 91.0 °F 99.3 °F 73.0 °F 55% 30.11 in 10.0 mi WSW 9.2 mph - N/A   Scattered Clouds
2:54 PM 91.0 °F 102.9 °F 75.9 °F 61% 30.08 in 10.0 mi SSW 10.4 mph - N/A   Mostly Cloudy
3:54 PM 90.0 °F 100.2 °F 75.0 °F 61% 30.06 in 10.0 mi SSW 11.5 mph - N/A   Scattered Clouds
4:54 PM 90.0 °F 100.2 °F 75.0 °F 61% 30.05 in 10.0 mi SSW 10.4 mph 17.3 mph N/A   Partly Cloudy
5:54 PM 88.0 °F 95.6 °F 73.0 °F 61% 30.04 in 10.0 mi South 12.7 mph - N/A   Partly Cloudy
6:54 PM 86.0 °F 93.8 °F 73.9 °F 67% 30.04 in 10.0 mi SSW 12.7 mph - N/A   Clear
7:54 PM 84.0 °F 90.2 °F 73.0 °F 69% 30.04 in 10.0 mi SSW 10.4 mph - N/A   Clear
8:54 PM 81.0 °F 85.8 °F 73.0 °F 77% 30.04 in 10.0 mi South 6.9 mph - N/A   Clear
9:54 PM 80.1 °F 84.5 °F 73.9 °F 81% 30.06 in 10.0 mi South 6.9 mph - N/A   Clear
10:54 PM 79.0 °F - 73.9 °F 84% 30.07 in 10.0 mi SSW 8.1 mph - N/A   Clear
11:54 PM 79.0 °F - 75.0 °F 88% 30.08 in 10.0 mi SSW 6.9 mph - N/A   Clear